Theta_e
331 331 332 331 326 330 331 332 329 324 327 322 329 335 334 332 337 337 334 335 335 336 336 336 334 332 335 336 334 331 327 324 317
332 331 329 331 330 329 333 332 329 326 327 324 328 334 332 332 337 338 335 335 334 335 332 328 324 329 335 334 333 330 328 321 319
330 332 331 328 328 326 331 333 330 326 328 328 329 331 331 331 336 336 335 336 332 327 324 322 319 328 332 331 330 329 324 323 319
330 330 330 329 327 324 328 333 332 329 327 332 330 330 331 331 333 334 335 329 329 331 328 321 314 317 329 332 329 323 327 327 325
332 329 329 330 329 328 325 328 332 332 329 326 331 331 332 332 334 333 333 332 332 331 329 325 321 315 329 329 325 326 329 329 325
329 330 328 329 329 329 327 326 328 330 327 327 328 330 332 332 333 333 333 332 331 331 328 323 318 316 328 328 325 326 331 330 327
325 328 329 329 329 328 327 327 327 329 329 328 328 329 331 333 333 333 332 331 330 328 330 328 317 315 327 330 326 324 327 330 327
319 324 329 329 328 328 328 328 328 329 330 329 331 330 329 331 333 332 331 330 329 327 328 328 321 315 324 330 327 325 326 331 327
317 322 324 328 330 329 330 329 329 329 330 330 329 330 330 330 330 330 330 330 327 325 324 319 318 317 321 326 328 326 320 326 328
322 323 326 329 330 329 328 327 326 328 327 329 330 330 330 328 327 327 325 322 328 324 324 323 321 315 319 323 327 327 323 322 325
320 321 323 324 328 329 329 328 328 325 326 325 325 330 330 330 329 327 325 325 323 322 325 323 323 323 324 323 324 328 327 325 318
320 320 320 322 324 327 327 327 326 327 323 326 329 329 330 330 330 328 325 324 323 326 327 329 325 321 320 324 326 326 329 327 322
316 319 319 319 319 320 322 322 323 323 326 325 326 328 326 327 328 328 325 326 324 322 322 322 324 327 323 321 321 327 329 329 326
312 312 312 313 314 316 318 318 319 319 319 320 324 327 327 328 328 328 328 327 325 323 321 318 316 323 325 325 322 321 328 327 326
311 311 311 311 311 312 312 314 316 316 317 317 316 317 320 323 325 326 326 326 326 326 326 324 319 324 325 324 323 321 322 327 329
309 308 309 309 309 309 309 309 310 312 314 315 317 318 318 319 317 320 323 325 325 325 324 322 324 325 323 324 322 317 319 323 327
305 306 306 307 307 307 307 307 308 310 311 311 312 316 318 319 320 316 321 322 323 324 325 324 323 322 319 319 324 325 324 323 326
299 299 301 304 305 305 305 306 306 308 308 309 309 312 315 315 319 319 320 322 323 323 324 322 322 323 323 322 324 324 324 323 324
295 295 296 297 298 300 301 303 304 306 306 306 308 308 308 310 312 315 318 319 319 320 322 322 323 324 323 323 324 324 325 324 325
294 293 293 293 293 293 294 298 301 302 304 304 305 306 306 307 307 308 313 313 314 315 315 316 319 321 320 320 321 323 322 323 325
Wind_Speed
12 11 10 9 9 9 10 9 10 10 11 11 11 13 15 13 11 12 14 13 15 14 13 12 12 12 13 12 10 9 8 8 5
12 12 11 11 10 9 11 11 10 11 12 12 13 15 15 13 13 13 14 13 15 13 12 11 12 12 15 13 11 9 10 6 4
17 14 14 13 12 10 10 12 12 11 12 14 14 15 16 17 14 13 14 14 14 12 11 11 13 13 14 14 13 10 11 7 8
21 17 16 13 13 13 12 13 13 13 11 13 15 17 17 16 14 13 12 15 14 11 11 11 11 15 16 14 12 10 11 10 11
23 22 19 15 16 14 13 13 14 14 14 13 15 17 19 18 16 17 16 16 14 12 11 11 10 14 17 14 11 10 14 13 12
19 21 23 29 21 17 15 14 16 16 16 16 18 19 21 20 17 17 20 18 15 13 11 10 10 14 17 15 13 15 18 16 12
18 17 22 21 21 19 17 16 16 17 17 18 21 22 22 20 18 18 20 18 16 14 13 11 10 15 18 19 13 17 19 18 13
18 19 16 21 20 19 17 17 18 17 19 20 18 22 26 22 20 20 21 20 18 16 16 15 12 16 20 21 19 17 17 22 20
14 13 16 18 19 20 20 19 19 20 20 21 23 22 24 26 25 25 23 22 21 19 18 18 15 15 21 23 24 23 16 27 25
5 8 8 12 17 23 20 23 22 21 24 23 24 27 29 29 28 26 24 24 24 21 21 20 18 17 22 26 26 27 22 24 29
3 7 9 12 11 11 13 18 16 32 28 27 28 31 31 33 30 27 27 27 28 26 25 23 22 20 22 24 27 30 29 24 23
3 5 8 8 7 8 11 11 13 12 22 36 27 31 32 31 33 35 33 31 33 29 28 27 26 26 24 25 25 29 33 30 25
7 5 5 9 10 12 12 13 11 12 8 22 27 22 28 30 29 28 35 36 32 29 33 30 32 30 30 28 27 27 31 33 31
9 10 9 9 10 12 16 17 15 15 16 16 18 20 22 21 22 26 27 31 37 36 39 33 36 33 35 33 30 30 32 34 36
11 12 12 13 12 13 15 16 17 19 22 22 22 23 22 20 21 23 28 27 35 35 34 34 35 36 33 35 37 34 35 35 40
11 12 11 11 13 14 15 16 15 14 19 20 18 21 23 22 25 26 24 24 30 34 33 33 34 32 28 38 39 38 41 41 39
12 12 12 13 13 13 12 14 13 11 13 13 14 11 13 14 18 24 21 23 23 29 33 32 33 33 33 36 41 40 41 49 42
10 11 12 14 15 14 14 14 12 9 7 7 6 5 6 10 8 12 15 19 21 24 27 33 33 33 34 33 36 41 46 44 47
11 11 12 12 13 13 13 13 12 11 10 5 6 9 12 6 10 6 8 10 12 15 20 22 24 29 33 35 37 42 36 43 47
9 10 11 12 13 13 12 11 11 11 10 10 8 6 7 11 10 14 15 16 15 15 12 10 18 26 23 21 24 27 44 34 41
Wind_Direction
229 247 248 247 261 248 231 229 237 231 229 218 212 203 193 192 182 183 184 175 176 171 170 174 179 184 183 196 201 203 220 232 239
237 236 242 241 249 255 226 224 231 232 227 218 212 208 200 185 193 187 182 184 181 185 189 187 193 191 200 210 220 224 235 228 211
245 238 237 238 243 245 234 227 223 228 230 223 214 212 207 194 198 195 191 197 195 203 210 211 203 198 216 214 224 225 234 210 173
247 242 242 240 242 241 235 229 224 224 226 230 219 213 216 206 206 201 199 201 201 214 217 218 214 204 217 216 221 223 217 191 162
246 243 237 242 244 235 236 231 227 229 226 230 228 224 216 210 209 206 205 212 219 225 225 225 224 209 217 225 220 211 214 198 179
253 243 247 240 242 234 227 233 235 231 233 232 229 228 222 214 215 213 219 222 228 230 230 228 232 213 218 224 221 213 215 212 210
253 261 241 239 239 239 232 228 230 232 231 233 229 225 226 219 218 220 225 225 229 233 230 235 248 219 220 220 220 208 219 222 227
246 255 254 242 242 241 240 233 234 237 236 227 230 230 226 225 224 222 228 233 236 240 238 246 256 229 222 222 213 217 240 220 220
241 257 263 258 246 242 241 237 236 237 235 241 236 233 233 231 233 234 235 240 242 242 243 256 253 239 226 227 225 222 229 232 239
227 237 254 263 257 248 249 246 248 245 243 240 245 246 242 240 241 239 239 241 244 249 244 244 257 251 237 234 235 228 225 229 239
260 248 260 264 266 252 249 248 271 245 249 247 248 253 251 244 237 240 242 240 243 244 248 249 246 252 249 244 243 232 231 236 238
343 262 266 272 295 279 264 271 285 246 250 255 252 252 250 249 252 246 248 238 237 242 242 248 251 249 250 253 249 245 238 239 245
22 23 324 306 294 298 301 287 280 281 263 247 260 253 252 253 252 245 239 238 241 246 251 248 247 246 251 254 258 251 241 243 249
340 334 337 313 306 298 286 288 293 285 277 269 265 262 261 255 250 250 244 240 244 248 246 246 251 250 247 251 251 255 250 248 250
338 333 328 325 319 304 293 287 280 281 282 277 274 271 265 265 266 259 255 247 247 249 247 252 256 262 257 246 252 252 255 254 249
354 353 351 345 338 331 323 312 296 276 266 276 281 274 271 266 265 263 260 258 255 250 244 244 244 252 268 265 251 248 253 258 254
2 1 352 345 345 347 343 340 325 297 290 284 285 289 279 276 257 260 258 258 262 256 252 248 253 253 262 268 260 261 259 251 251
353 349 344 341 339 339 338 336 336 334 318 308 280 294 288 311 270 264 260 252 250 249 246 245 249 249 253 254 261 257 257 257 251
347 347 347 344 340 335 335 338 335 336 323 326 269 257 270 285 289 274 272 261 253 247 245 240 239 246 246 244 254 255 258 255 252
335 342 344 341 336 332 329 324 320 323 328 328 321 283 266 263 265 266 269 287 282 282 283 273 249 250 253 243 254 259 251 256 250